DW2199 Weather Reports


Display with metric or nautical units.
time (UTC)temp
F
wind
direction
speed
MPH
gust
MPH
rain 1hr
in
rain 24hr
in
rain mn
in
humidity
%
barometer
mb
20260902223052 69 210 0.0 5.0 0.00 0.00 0.00 85 1016.1
20260902221557 69 194 0.0 3.0 0.00 0.00 0.00 85 1017.2
20260902220054 70 198 0.0 0.0 0.00 0.00 0.00 85 1017.4
20260902214541 70 198 0.0 1.0 0.00 0.00 0.00 83 1017.5
20260902213041 70 195 0.0 1.0 0.00 0.00 0.00 83 1017.3
20260902211539 70 198 0.0 1.0 0.00 0.00 0.00 82 1017.0
20260902210045 70 190 0.0 1.0 0.00 0.00 0.00 81 1017.3
20260902204542 70 190 0.0 1.0 0.00 0.00 0.00 82 1017.3
20260902203025 70 207 0.0 2.0 0.00 0.00 0.00 81 1017.3
20260902201540 70 181 0.0 2.0 0.00 0.00 0.00 79 1017.5
20260902200024 70 203 0.0 1.0 0.00 0.00 0.00 80 1017.6
20260902194531 71 203 0.0 1.0 0.00 0.00 0.00 80 1017.7
20260902193037 70 203 0.0 1.0 0.00 0.00 0.00 81 1017.6
20260902191520 70 186 0.0 0.0 0.00 0.00 0.00 83 1017.9
20260902190017 69 186 0.0 1.0 0.00 0.00 0.00 83 1018.2
20260902184518 69 163 0.0 1.0 0.00 0.00 0.00 81 1018.4
20260902183002 69 163 0.0 1.0 0.00 0.00 0.00 81 1018.5
20260902181502 69 184 0.0 1.0 0.00 0.00 0.00 81 1018.6
20260902180105 70 185 0.0 3.0 0.00 0.00 0.00 79 1018.3
20260902174600 69 174 0.0 1.0 0.00 0.00 0.00 79 1018.5
20260902173111 69 174 0.0 1.0 0.00 0.00 0.00 80 1018.6
20260902171604 69 155 0.0 3.0 0.00 0.00 0.00 78 1018.5
20260902170058 69 157 0.0 4.0 0.00 0.00 0.00 78 1018.5
20260902164601 69 122 0.0 3.0 0.00 0.00 0.00 79 1018.5
20260902163039 69 198 0.0 3.0 0.00 0.00 0.00 79 1018.5
20260902161532 69 180 0.0 2.0 0.00 0.00 0.00 80 1018.7
20260902160021 69 200 0.0 3.0 0.00 0.00 0.00 81 1018.9
20260902154522 68 226 0.0 3.0 0.00 0.00 0.00 83 1018.7
20260902153038 68 188 0.0 3.0 0.00 0.00 0.00 83 1019.1
20260902151513 67 188 0.0 2.0 0.00 0.00 0.00 84 1019.5
20260902150012 67 214 0.0 2.0 0.00 0.00 0.00 86 1019.6
20260902144510 67 196 0.0 1.0 0.00 0.00 0.00 86 1019.4
20260902143010 67 187 0.0 1.0 0.00 0.00 0.00 88 1019.5
20260902141508 67 186 0.0 1.0 0.00 0.00 0.00 88 1019.3
20260902140057 67 186 0.0 2.0 0.00 0.00 0.00 88 1019.3
20260902134557 66 193 0.0 1.0 0.00 0.00 0.00 88 1019.2
20260902133057 66 196 0.0 1.0 0.00 0.00 0.00 89 1019.3
20260902131556 66 193 0.0 1.0 0.00 0.00 0.00 88 1019.1
20260902130052 67 195 0.0 2.0 0.00 0.00 0.00 89 1018.7
20260902124552 66 196 0.0 1.0 0.00 0.00 0.00 90 1018.5
20260902123057 66 195 0.0 0.0 0.00 0.00 0.00 91 1018.7
20260902121550 66 195 0.0 1.0 0.00 0.00 0.00 92 1018.6
20260902120033 66 195 0.0 1.0 0.00 0.00 0.00 92 1018.6
20260902114532 66 195 0.0 1.0 0.00 0.00 0.00 93 1018.4
20260902113013 66 196 0.0 2.0 0.00 0.00 0.00 93 1018.6
20260902111512 66 190 0.0 0.0 0.00 0.00 0.00 94 1018.8
20260902110002 66 191 0.0 1.0 0.00 0.00 0.00 94 1018.7
20260902104613 65 190 0.0 1.0 0.00 0.00 0.00 94 1018.5
20260902103059 65 190 0.0 0.0 0.00 0.00 0.00 95 1018.5
20260902101558 65 190 0.0 0.0 0.00 0.00 0.00 95 1018.4
20260902100057 65 190 0.0 0.0 0.00 0.00 0.00 94 1018.3
20260902094556 65 190 0.0 0.0 0.00 0.00 0.00 94 1018.3
20260902093102 65 190 0.0 0.0 0.00 0.00 0.00 94 1018.1
20260902091555 65 190 0.0 0.0 0.00 0.00 0.00 94 1018.0
20260902090057 65 190 0.0 0.0 0.00 0.00 0.00 94 1018.0
20260902084544 66 190 0.0 0.0 0.00 0.00 0.00 95 1018.4
20260902083040 66 190 0.0 1.0 0.00 0.00 0.00 95 1018.2
20260902081538 66 190 0.0 1.0 0.00 0.00 0.00 95 1018.0
20260902080039 66 188 0.0 0.0 0.00 0.00 0.00 95 1017.9
20260902074539 66 190 0.0 0.0 0.00 0.00 0.00 95 1017.8
20260902073036 66 190 0.0 0.0 0.00 0.00 0.00 95 1017.8
20260902071536 66 190 0.0 0.0 0.00 0.00 0.00 95 1017.9
20260902070035 66 190 0.0 0.0 0.00 0.00 0.00 95 1017.9
20260902064522 66 190 0.0 1.0 0.00 0.00 0.00 96 1017.8
20260902063022 66 190 0.0 0.0 0.00 0.00 0.00 96 1018.0
20260902061542 66 188 0.0 0.0 0.00 0.00 0.00 96 1018.0
20260902060023 66 191 0.0 0.0 0.00 0.00 0.00 96 1018.0
20260902054518 66 190 0.0 0.0 0.00 0.00 0.00 96 1017.8
20260902053020 66 190 0.0 0.0 0.00 0.00 0.00 95 1017.6
20260902051514 66 190 0.0 0.0 0.00 0.00 0.00 95 1017.3
20260902050014 66 190 0.0 0.0 0.00 0.00 0.00 95 1017.3
20260902044554 66 190 0.0 0.0 0.00 0.00 0.00 95 1017.1
20260902043053 67 190 0.0 0.0 0.00 0.00 0.00 95 1017.1
20260902041539 67 190 0.0 0.0 0.00 0.00 0.00 95 1017.1
20260902040043 67 189 0.0 0.0 0.00 0.00 0.00 95 1017.0
20260902034516 67 190 0.0 0.0 0.00 0.00 0.00 95 1017.1
20260902033015 67 190 0.0 0.0 0.00 0.00 0.00 95 1016.9
20260902031502 67 190 0.0 0.0 0.00 0.00 0.00 94 1016.7
20260902030001 67 190 0.0 0.0 0.00 0.00 0.00 94 1016.6
20260902024602 67 190 0.0 1.0 0.00 0.00 0.00 94 1016.6
20260902023110 68 190 0.0 0.0 0.00 0.00 0.00 94 1016.6
20260902021600 68 190 0.0 1.0 0.00 0.00 0.00 93 1016.5
20260902020058 68 190 0.0 2.0 0.00 0.00 0.00 94 1016.5
20260902014557 68 190 0.0 0.0 0.00 0.00 0.00 94 1016.3
20260902013058 68 190 0.0 0.0 0.00 0.00 0.00 94 1016.5
20260902011545 68 190 0.0 0.0 0.00 0.00 0.00 94 1016.3
20260902010044 68 190 0.0 0.0 0.00 0.00 0.00 94 1016.0
20260902004543 68 190 0.0 0.0 0.00 0.00 0.00 94 1016.2
20260902003042 68 190 0.0 0.0 0.00 0.00 0.00 94 1015.9
20260902001556 69 190 0.0 0.0 0.00 0.00 0.00 93 1015.8
20260902000043 69 190 0.0 0.0 0.00 0.00 0.00 93 1015.8
20260901234539 70 190 0.0 0.0 0.00 0.00 0.00 93 1015.8
20260901233039 70 190 0.0 0.0 0.00 0.00 0.00 92 1015.8
20260901231521 70 190 0.0 0.0 0.00 0.00 0.00 91 1015.5
20260901230021 71 190 0.0 0.0 0.00 0.00 0.00 90 1015.5